Location: Newark
(13.6797°N, 8.5297°E)
Time: 05:22:58
(UTC+00:00)

A-11 Canister half - Pass Details

Date: 18 January 2020
Orbit: 1517 x 1683 km, 47.2° (Epoch: 17 February)

Event Time Altitude Azimuth Distance (km) Brightness Sun altitude
Rises 22:46:14 0° 227° (SW) 4,797 - -76.2°
Reaches altitude 10° 22:49:23 10° 229° (SW) 3,789 - -76.9°
Maximum altitude 22:58:56 72° 312° (NW) 1,611 - -78.8°
Drops below altitude 10° 23:08:12 10° 36° (NE) 3,684 - -80.4°
Sets 23:11:14 0° 39° (NE) 4,659 - -80.9°
